This demonstration page uses our WeatherBlox Daily Observations layout. Learn more.

Left ArrowRight Arrow

38.88101, -77.10428

Hourly Observations for December 19, 2015

Temp ( °F °C ) Dew Point ( °F °C ) Humidity (%) Winds ( mph kmh ) Pressure ( in mb ) Visibility ( mi km ) Precip ( " mm )
12:52 am 00:52 Mostly Clear 33 0.6 21 -6.1 61 61 WSW 7 11 30.07 1018 10 16 N/A
1:52 am 01:52 Partly Cloudy 36 2.2 18 -7.8 48 48 W 16 26 30.10 1019 10 16 N/A
2:52 am 02:52 Partly Cloudy 34 1.1 13 -10.6 42 42 W 22 35 30.14 1021 10 16 N/A
3:52 am 03:52 Clear 33 0.6 11 -11.7 40 40 W 14 22 30.17 1022 10 16 N/A
4:52 am 04:52 Clear 33 0.6 13 -10.6 43 43 WNW 13 20 30.18 1022 10 16 N/A
5:52 am 05:52 Clear 33 0.6 14 -10 45 45 W 8 13 30.20 1023 10 16 N/A
6:52 am 06:52 Clear 30 -1.1 15 -9.4 54 54 SSW 7 11 30.21 1023 10 16 N/A
7:52 am 07:52 Sunny 32 undefined 15 -9.4 50 50 SW 5 7 30.21 1023 10 16 N/A
8:52 am 08:52 Sunny 35 1.7 16 -8.9 46 46 SSW 9 15 30.24 1024 10 16 N/A
9:52 am 09:52 Sunny 38 3.3 16 -8.9 41 41 SW 14 22 30.26 1025 10 16 N/A
10:52 am 10:52 Partly Cloudy 38 3.3 16 -8.9 41 41 WSW 14 22 30.26 1025 10 16 N/A
11:21 am 11:21 Mostly Cloudy 39 3.9 17 -8.3 41 41 SW 13 20 30.27 1025 10 16 N/A
11:52 am 11:52 Mostly Cloudy 39 3.9 17 -8.3 41 41 SW 12 19 30.25 1024 10 16 N/A
12:52 pm 12:52 Mostly Cloudy 42 5.6 18 -7.8 38 38 W 10 17 30.24 1024 10 16 N/A
1:52 pm 13:52 Mostly Sunny 44 6.7 18 -7.8 35 35 W 13 20 30.23 1024 10 16 N/A
2:52 pm 14:52 Mostly Sunny 45 7.2 17 -8.3 33 33 W 9 15 30.24 1024 10 16 N/A
3:52 pm 15:52 Mostly Sunny 44 6.7 16 -8.9 32 32 WNW 12 19 30.26 1025 10 16 N/A
4:52 pm 16:52 Clear 42 5.6 17 -8.3 36 36 NW 17 28 30.31 1026 10 16 N/A
5:52 pm 17:52 Clear 40 4.4 17 -8.3 40 40 NNW 7 11 30.34 1027 10 16 N/A
6:52 pm 18:52 Clear 39 3.9 17 -8.3 41 41 NNW 8 13 30.36 1028 10 16 N/A
7:52 pm 19:52 Clear 38 3.3 18 -7.8 44 44 NW 10 17 30.38 1029 10 16 N/A
8:52 pm 20:52 Clear 38 3.3 17 -8.3 43 43 N N/A 30.41 1030 10 16 N/A
9:52 pm 21:52 Clear 38 3.3 18 -7.8 44 44 NW 10 17 30.41 1030 10 16 N/A
10:52 pm 22:52 Clear 38 3.3 18 -7.8 44 44 N N/A 30.43 1031 10 16 N/A
11:52 pm 23:52 Clear 38 3.3 18 -7.8 44 44 N N/A 30.44 1031 10 16 N/A

Powered by AerisWeather